Location: Amsterdam
(30.7274°N, 84.4357°W)
Time: 19:32:31
(UTC+00:00)

Altair - Pass Details

Date: 15 August 2024
Orbit: 1501 x 1682 km, 47.2° (Epoch: 07 September)

Event Time Altitude Azimuth Distance (km) Brightness Sun altitude
Rises 16:20:56 0° 243° (WSW) 4,919 10.0 64.8°
Reaches altitude 10° 16:24:11 10° 247° (WSW) 3,923 9.6 65.3°
Maximum altitude 16:34:08 62° 326° (NNW) 1,814 8.6 66.9°
Drops below altitude 10° 16:43:47 10° 47° (NE) 3,811 9.7 68.3°
Sets 16:46:55 0° 51° (NE) 4,772 10.1 68.8°
